Regional Weather Roundup
Issued by NWS Charleston, SC

Current Version | Previous Version | Graphics & Text | Print | Product List | Glossary On
Versions: 1 2 3 4 5 6 7 8 9 10 11 12 13 14 15 16 17 18 19 20 21 22 23 24 25 26 27 28 29 30 31 32 33 34 35 36 37 38 39 40 41 42 43 44 45 46 47 48 49 50
000
ASUS42 KCHS 012210
RWRCHS
REGIONAL WEATHER ROUNDUP
NATIONAL WEATHER SERVICE CHARLESTON SC
600 PM EDT WED OCT 01 2014

NOTE: "FAIR" INDICATES FEW OR NO CLOUDS BELOW 12,000 FEET WITH NO
SIGNIFICANT WEATHER AND/OR OBSTRUCTIONS TO VISIBILITY.

NOT ALL STATIONS ARE QUALITY CONTROLLED BY THE NATIONAL
WEATHER SERVICE. USE DATA WITH CAUTION...ESPECIALLY
DEWPOINT OBSERVATIONS.

SCZ027-030-031-034>040-042>050-012300-
...SOUTH CAROLINA...

CITY           SKY/WX    TMP DP  RH WIND       PRES   REMARKS
N CHARLESTON   MOSUNNY   80  65  59 SE9       29.98R
WATERFRONT PRK   N/A     81 N/A N/A E9          N/A
FORT JOHNSON   NOT AVBL
MOUNT PLEASANT FAIR      79  64  61 E3        29.98S
JOHNS ISLAND   CLEAR     79  70  73 E7        29.98S
PINOPOLIS        N/A     93  63  36 MISG      29.90R HX  94
MONCKS CORNER  FAIR      82  66  57 CALM      29.97R
SUMMERVILLE    FAIR      82  64  54 CALM      29.98R
BEAUFORT MCAS  MOSUNNY   80  69  69 S3        29.97R
BEAUFORT ARPT  FAIR      79  68  69 CALM      29.97R
HILTON HEAD IS SUNNY     79  68  69 CALM      29.99R
GEORGETOWN     NOT AVBL
WALTERBORO     CLEAR     82  57  42 E5        29.98R
ORANGEBURG     SUNNY     82  61  48 SE7       29.97R
BARNWELL       FAIR      84  59  42 CALM      29.97S
AIKEN          FAIR      82  63  51 SE5       30.00S
MANNING        FAIR      81  68  65 CALM      29.97R
KINGSTREE      NOT AVBL
COLUMBIA       MOSUNNY   85  58  39 SE5       29.95S
SUMTER         SUNNY     84  61  45 SE5       29.95S
FLORENCE       MOSUNNY   81  64  56 S3        29.96S
MYRTLE BEACH   MOSUNNY   79  64  61 S8        29.98R
N MYRTLE BEACH SUNNY     77  66  68 VRB6      29.97R

$$

GAZ063-065-086>088-099>101-113>116-118-119-134-136>141-150-012300-
...GEORGIA...

CITY           SKY/WX    TMP DP  RH WIND       PRES   REMARKS
SAVANNAH ARPT  MOSUNNY   82  63  52 E8        29.97R
HUNTER AAF     SUNNY     80  65  60 SE6       29.96R
FORT STEWART   PTSUNNY   80  63  55 CALM      29.96R
STATESBORO     NOT AVBL
SYLVANIA       CLEAR     85  70  61 CALM      29.98S
CLAXTON        FAIR      82  68  61 SE3       29.96S
THOMSON        SUNNY     83  70  63 N3        30.01R
AUGUSTA-BUSH   SUNNY     84  60  44 SE6       29.95S
AUGUSTA-DANIEL SUNNY     85  58  39 CALM      29.97S
SWAINSBORO     MOCLDY    86  64  48 E7        29.97S
VIDALIA        SUNNY     81  64  57 CALM      29.96S
ALMA           MOSUNNY   81  67  62 SE5       29.96R
WAYCROSS       CLOUDY    83  73  72 CALM      29.96S
JESUP          FAIR      81  70  69 SE3       29.97S
BRUNSWICK      CLOUDY    79  66  65 E8        29.98R
SAINT SIMONS   CLOUDY    77  67  71 NE10      29.97R

$$

SCZ027-028-034-036>038-045-046-048>050-GAZ119-141-012300-
...LAKE AND SUPPLEMENTAL COASTAL OBSERVATIONS...

STATION/POSITION TIME  TEMP    WIND        PRES    WAVE   SWELL
                       AIR SEA DIR/SP/G            HT/PER HT/PER/DIR
                 (UTC) (F)     (DEG/KT/KT) (MB)    (FT/S) (FT/S/D)
UPR LAKE MARION  NOT AVBL
WINYAH BAY       2100   76     110/  6     1015.0S
LAKE MURRAY      2100   86     210/  2/  2 1013.9S
ACE BASIN NERRS  2100   79     140/  3     1015.0S
FORT PULASKI     2200   78      90/  7/  8 1015.4R
SAPELO ISLAND    NOT AVBL

$$

ANZ835-935-AMZ111-154-330-350-352-354-374-450-454-472-012300-
...C-MAN AND BUOY OBSERVATIONS...

STATION/POSITION TIME  TEMP    WIND        PRES    WAVE   SWELL
                       AIR SEA DIR/SP/G            HT/PER HT/PER/DIR
                 (UTC) (F)     (DEG/KT/KT) (MB)    (FT/S) (FT/S/D)
FOLLY BEACH CMAN 2100   77     100/  7/  8 1015.4F
BUOY 41004       2200   77 81   40/  8/ 10 1014.7R   3/ 6   2/ 6
BUOY 41008       2200   77 79   50/ 12/ 14 1014.6S   2/ 6   2/ 60/ 6
5E ST. MARYS GA  NOT AVBL
FRYING PAN BUOY  NOT AVBL
BUOY 41025       2200   72     350/ 17/ 19 1014.6R   3/ 7   2/ 50/ 7
CAPE LOOKOUT NC  2100   75      50/ 10/ 11 1014.5R
BUOY 41002       2107   80 81   20/ 10/ 12 1012.8    4/ 6   3/ 20/ 6
BUOY 41010       2200   80 85   10/  6/  8 1013.1R   3/ 7   3/ 10/ 7
BUOY 41012       NOT AVBL
ST AUGUSTINE FL  2200   78      60/ 12/ 14 1014.6R
CAPERS NEARSHORE 2100   77     110/  8/ 10   N/A
FRIPP NEARSHORE  NOT AVBL


$$



USA.gov is the U.S. government's official web portal to all federal, state and local government web resources and services.